Home > Weather > Medellin > Past weeks

Flag for Colombia Past Weather in Medellin, Colombia — Yesterday and Last 2 Weeks

Now
73 °F

Partly sunny.


Feels Like: 77 °F
Forecast: N/A
Wind: 8 mph from East

Location: Rionegro / J. M. Cordova

Current Time: Jul 1, 2016 at 3:43:25 PM

Latest Report: Jul 1, 2016 at 3:00 PM


Visibility: N/A

Pressure: 30.25 "Hg (25.50 "Hg at 1479m altitude)

Humidity: 47%

Dew Point: 52 °F

Location of MedellinLocation

Past Weather in Medellin — Graph

°F

Medellin Temperature Yesterday

Maximum temperature yesterday: 75 °F (at 2:00 PM)
Minimum temperature yesterday: 55 °F (at 6:00 AM)
Average temperature yesterday: 64 °F

High & Low Weather Summary for the Past Weeks

 TemperatureHumidityPressure
High75 °F (Jun 17, 3:00 PM)100% (Jun 16, 11:00 PM)30.39 "Hg (Jun 16, 11:00 PM)
Low52 °F (Jun 27, 5:00 AM)39% (Jun 17, 3:00 PM)30.20 "Hg (Jun 25, 4:00 PM)
Average63 °F76%30.30 "Hg
* Reported Jun 16 2:00 PM — Jul 1 2:00 PM, Medellin, Weather by CustomWeather, © 2016

Note: Actual official high and low records may vary slightly from our data, if they occured in-between our weather recording intervals... More about our weather records

Advertising

Medellin Weather History for the Previous 24 Hours

Scroll right to see more
 ConditionsComfort  
Time TempWeatherWind HumidityBarometerVisibility
2:00 PM
Fri, Jul 1
72 °FPartly sunny.7 mph50%30.25 "HgN/A
1:00 PM73 °FPartly sunny.9 mph47%30.27 "HgN/A
12:00 PM72 °FPartly sunny.12 mph50%30.30 "HgN/A
11:00 AM70 °FPartly sunny.12 mph57%30.31 "HgN/A
10:00 AM68 °FOvercast.7 mph60%30.31 "HgN/A
9:00 AM64 °FOvercast.5 mph73%30.32 "HgN/A
8:00 AM59 °FPartly sunny.No wind88%30.31 "HgN/A
7:00 AM55 °FFog.No wind88%30.30 "HgN/A
6:00 AM55 °FFog.2 mph94%30.26 "HgN/A
5:00 AM55 °FPartly cloudy.No wind94%30.25 "HgN/A
4:00 AM57 °FPartly cloudy.3 mph94%30.24 "HgN/A
3:00 AM57 °FPartly cloudy.No wind94%30.24 "Hg5 mi
2:00 AM59 °FPartly cloudy.No wind94%30.26 "Hg6 mi
1:00 AM61 °FPartly cloudy.No wind88%30.27 "HgN/A
12:00 AM61 °FPartly cloudy.No wind88%30.28 "HgN/A
11:00 PM
Thu, Jun 30
61 °FPartly cloudy.2 mph88%30.30 "HgN/A
10:00 PM63 °FPartly cloudy.2 mph83%30.29 "HgN/A
9:00 PM63 °FPassing clouds.2 mph83%30.30 "HgN/A
8:00 PM63 °FPassing clouds.5 mph83%30.29 "HgN/A
7:00 PM63 °FPassing clouds.8 mph83%30.22 "HgN/A
6:00 PM64 °FPartly sunny.8 mph78%30.24 "HgN/A
5:00 PM68 °FBroken clouds.10 mph64%30.22 "HgN/A
4:00 PM72 °FBroken clouds.9 mph57%30.20 "HgN/A
Weather by CustomWeather, © 2016

See weather overviewHow to use our weather pages